This is the latest recevied weather packets stored in our database for station/object W9ESR. If no packets are shown the sender has not sent any weather packets the latest 1 day(s).
| Time | Temp. | Humidity | Pressure | Rain* | Wind** | Luminosity | Snow |
|---|---|---|---|---|---|---|---|
| 1777983271 | 8.33° C | 72% | - | 0 mm | 1.79 m/s, 317° | - | - |
| 1777982967 | 8.33° C | 73% | - | 0 mm | 0.89 m/s, 270° | - | - |
| 1777982664 | 8.33° C | 73% | - | 0 mm | 0.89 m/s, 312° | - | - |
| 1777982363 | 8.33° C | 73% | - | 0 mm | 1.79 m/s, 10° | - | - |
| 1777982059 | 8.33° C | 73% | - | 0 mm | 2.24 m/s, 6° | - | - |
| 1777981758 | 8.33° C | 73% | - | 0 mm | 2.68 m/s, 9° | - | - |
| 1777981453 | 8.33° C | 74% | - | 0 mm | 1.79 m/s, 10° | - | - |
| 1777981150 | 8.33° C | 75% | - | 0 mm | 1.79 m/s, 6° | - | - |
| 1777980847 | 8.33° C | 74% | - | 0 mm | 2.24 m/s, 1° | - | - |
| 1777980543 | 8.33° C | 74% | - | 0 mm | 1.79 m/s, 354° | - | - |
| 1777980240 | 8.33° C | 74% | - | 0 mm | 1.79 m/s, 5° | - | - |
| 1777979936 | 8.33° C | 75% | - | 0 mm | 1.34 m/s, 3° | - | - |
| 1777979642 | 8.33° C | 74% | - | 0 mm | 1.79 m/s, 10° | - | - |
| 1777979327 | 8.33° C | 74% | - | 0 mm | 1.34 m/s, 13° | - | - |
| 1777979025 | 8.33° C | 74% | - | 0 mm | 1.79 m/s, 14° | - | - |
| 1777978721 | 8.33° C | 74% | - | 0 mm | 1.34 m/s, 18° | - | - |
| 1777978418 | 8.33° C | 74% | - | 0 mm | 0.89 m/s, 353° | - | - |
| 1777978114 | 8.33° C | 74% | - | 0 mm | 0.89 m/s, 5° | - | - |
| 1777977812 | 8.33° C | 74% | - | 0 mm | 1.34 m/s, 9° | - | - |
| 1777977507 | 8.33° C | 74% | - | 0 mm | 1.34 m/s, 5° | - | - |
| 1777977205 | 8.33° C | 73% | - | 0 mm | 1.79 m/s, 9° | - | - |
| 1777976903 | 8.33° C | 72% | - | 0 mm | 2.68 m/s, 6° | - | - |
| 1777976600 | 8.33° C | 71% | - | 0 mm | 1.34 m/s, 9° | - | - |
| 1777976295 | 8.89° C | 68% | - | 0 mm | 1.79 m/s, 21° | - | - |
| 1777975990 | 8.89° C | 69% | - | 0 mm | 1.34 m/s, 27° | - | - |
* Rain latest hour (hover to see other rain measurements)
** Current wind speed in m/s (hover to see current wind gust speed)